APRIZESAT 5 (37792 NORAD) Tracking and Keplerian Element Data

This shows tracking and keplerian element data for the satellite.

Feedback or suggestion? Click here.




ElementValue
Catalog37792
NameAPRIZESAT 5
Epoch Orbit72525
Epoch Day35.17973464
Epoch Year2025
RAAN310.3985
Inclination98.2343
Eccentricity0.0054263
Argument of Perigee163.641
Mean Anonmoly196.6568
Mean Motion14.79369928
Decay Rate2.259E-05
L11 37792U 11044E 25035.17973464 .00002259 00000+0 30328-3 0 9990
L22 37792 98.2343 310.3985 0054263 163.6410 196.6568 14.79369928725259



Live tracking and technical data element details for APRIZESAT 5 (NORAD 37792). APRIZESAT 5 can be tracked NOW for your location showing map with azimuth and elevation plus other details from your city location.







IsCatalogInMostPopularTable: catalog: 37792, numindb: 597
Update: records affected: 1



GetName: 37792 APRIZESAT 5

Hit Count: updated at: Sat, 24 May 2025 16:29:10 GMT